Regional Weather Roundup
Issued by NWS Portland, ME

Home | Current Version | Previous Version | Text Only | Print | Product List | Glossary On
Versions: 1 2 3 4 5 6 7 8 9 10 11 12 13 14 15 16 17 18 19 20 21 22 23 24 25 26 27 28 29 30 31 32 33 34 35 36 37 38 39 40 41 42 43 44 45 46 47 48 49 50
000
ASUS41 KGYX 181710
RWRGYX
WEATHER ROUNDUP FOR MAINE AND NEW HAMPSHIRE
NATIONAL WEATHER SERVICE GRAY ME
1200 PM EST MON DEC 18 2017

MEZ002-005-006-010-012-015-018-020-021-024-026-027-029-181800-
MAINE

CITY           SKY/WX    TMP DP  RH WIND       PRES   REMARKS
PORTLAND       LGT SNOW  21  17  84 VRB3      30.08F FOG
SANFORD        FLURRIES  24  17  74 CALM      30.07F
BAR HARBOR     CLOUDY    20  12  71 N3        30.10F
WISCASSET      CLOUDY    17  13  84 CALM      30.10F
ROCKLAND       LGT SNOW  27  25  93 W8        30.05F FOG
FRYEBURG       CLOUDY    17  11  77 CALM      30.03F
LEWISTONAUBURN FLURRIES  19  11  70 S3        30.05F
AUGUSTA        CLOUDY    15   8  73 CALM      30.06F
WATERVILLE     FLURRIES  15   8  73 CALM      30.02F
BANGOR         CLOUDY    15   6  67 CALM      30.08F
GREENVILLE       N/A      9   2  73 SE7       29.93F
MILLINOCKET    CLOUDY    11   2  67 SE8       30.07F
HOULTON        CLOUDY     9   0  67 VRB5      30.05F
PRESQUE ISLE   CLOUDY     9   0  67 NE6       30.04F
FRENCHVILLE    CLOUDY     3  -3  76 SE5       29.96F
CARIBOU        CLOUDY     5  -3  69 CALM      30.02F
$$

NHZ002-005-008-009-011-012-014-181800-
NEW HAMPSHIRE

CITY           SKY/WX    TMP DP  RH WIND       PRES   REMARKS
PORTSMOUTH     CLOUDY    22  15  74 CALM      30.06F
ROCHESTER      CLOUDY    22  16  78 VRB3      30.05F
NASHUA         FLURRIES  27  15  61 CALM      30.07F
MANCHESTER     LGT SNOW  24  12  60 CALM      30.05F
CONCORD        FLURRIES  21  15  78 CALM      30.05F
LACONIA        LGT SNOW  21  16  81 W5        30.04F
PLYMOUTH       LGT SNOW  16  13  87 CALM      30.05F VSB 1
BERLIN         LGT SNOW  11   6  81 CALM      29.96F
WHITEFIELD     LGT SNOW  12   8  84 CALM      29.97F VSB 3/4
JAFFREY        LGT SNOW  25  19  78 W3        30.00F VSB 1
KEENE          LGT SNOW  23  18  81 CALM      30.05F
LEBANON        CLOUDY    19  13  77 CALM      30.01F
MT WASHINGTON  SNOW      18  18 100 W51         N/A  VSB 0   WCI  -6
$$

VTZ005-007-008-181800-
VERMONT

CITY           SKY/WX    TMP DP  RH WIND       PRES   REMARKS
ST JOHNSBURY     N/A     13  10  88 MISG      29.98F
MONTPELIER     LGT SNOW  16  13  88 CALM      29.97F FOG
BURLINGTON     CLOUDY    29  21  72 S15G22    29.95F WCI  18
$$

MAZ007-012-024-CTZ003-RIZ002-NYZ038-NYZ072-181800-
SOUTHERN NEW ENGLAND AND NY

CITY           SKY/WX    TMP DP  RH WIND       PRES   REMARKS
BOSTON         CLOUDY    31  15  52 CALM      30.07F
WORCESTER      CLOUDY    28  17  63 SW8       30.01F
NANTUCKET      CLOUDY    38  28  67 SE8       30.07F
PROVIDENCE     CLOUDY    33  21  61 CALM      30.07F
HARTFORD       CLOUDY    31  16  54 CALM      30.07F
ALBANY         CLOUDY    28  19  69 NW3       30.02F
NEW YORK CITY  CLOUDY    40  33  76 NE5       30.04F
$$

ANZ081-ANZ082-ANZ150-NHZ014-MEZ023>029-181800-
COASTAL MARINE OBSERVATIONS

STATION/POSITION TIME  TEMP    WIND        PRES    WAVE
                       AIR SEA DIR/SP/G            HT/PER
                 (UTC) (F)     (DEG/KT/KT) (MB)    (FT/S)
MOUNT DESERT ROC 1700   31     180/ 13/ 16 1018.9F
MATINICUS ROCK   1600   31     200/ 17/ 19 1019.0F
ISLE OF SHOALS   1600   26        CALM     1019.6F
JEFFREYS LEDGE   1606      47                N/A     1/12
GEORGES BANK BUO 1550   39 51              1021.3    4/ 6
$$

.............KEY..............
   WCI - WIND CHILL
   TC  - TEMPERATURE IN CELSIUS
   VSB - VISIBILITY IN MILES
   HX  - HEAT INDEX
   FAIR- INDICATES FEW OR NO CLOUDS BELOW 12,000 FT, WITH NO
         SIGNIFICANT WEATHER AND/OR OBSTRUCTIONS TO VISIBILITY.






USA.gov is the U.S. government's official web portal to all federal, state and local government web resources and services.